Home   Weather   Rendsburg   Past weeks

Flag for Germany Past Weather in Rendsburg, Schleswig-Holstein, Germany — Yesterday and Last 2 Weeks

Now
68 °F

Passing clouds.


Feels Like: 68 °F
Forecast: 52 / 73 °F
Wind: 9 mph from West

Location: Hohn

Current Time: Aug 30, 2016 at 7:17:00 PM

Latest Report: Aug 30, 2016 at 6:20 PM


Visibility: N/A

Pressure: 30.24 "Hg

Humidity: 69%

Dew Point: 57 °F

Location of RendsburgLocation

Past Weather in Rendsburg — Graph

°F

Rendsburg Temperature Yesterday

Maximum temperature yesterday: 66 °F (at 11:20 AM)
Minimum temperature yesterday: 54 °F (at 11:20 PM)
Average temperature yesterday: 62 °F

High & Low Weather Summary for the Past Weeks

 TemperatureHumidityPressure
High86 °F (Aug 25, 4:20 PM)100% (Aug 16, 5:20 AM)30.30 "Hg (Aug 16, 5:20 AM)
Low43 °F (Aug 16, 5:20 AM)41% (Aug 16, 4:20 PM)29.77 "Hg (Aug 20, 6:20 AM)
Average63 °F81%30.04 "Hg
* Reported Aug 15 5:20 PM — Aug 30 5:20 PM, Rendsburg, Weather by CustomWeather, © 2016

Note: Actual official high and low records may vary slightly from our data, if they occured in-between our weather recording intervals... More about our weather records

Advertising

Rendsburg Weather History for the Previous 24 Hours

Scroll right to see more
 ConditionsComfort  
Time TempWeatherWind HumidityBarometerVisibility
5:20 PM
Tue, Aug 30
68 °FPassing clouds.14 mph64%30.27 "HgN/A
4:20 PM68 °FPassing clouds.14 mph64%30.27 "HgN/A
3:20 PM68 °FPassing clouds.15 mph64%30.27 "HgN/A
2:20 PM68 °FPassing clouds.12 mph64%30.27 "HgN/A
1:20 PM68 °FScattered clouds.13 mph64%30.27 "HgN/A
12:20 PM66 °FScattered clouds.16 mph68%30.27 "HgN/A
11:20 AM66 °FScattered clouds.16 mph68%30.27 "HgN/A
10:20 AM64 °FScattered clouds.9 mph73%30.24 "HgN/A
9:20 AM63 °FPassing clouds.8 mph83%30.24 "HgN/A
8:20 AM59 °FPassing clouds.5 mph88%30.21 "HgN/A
7:20 AM57 °FPassing clouds.2 mph88%30.21 "HgN/A
6:20 AM54 °FPassing clouds.5 mph94%30.21 "HgN/A
5:20 AM55 °FPassing clouds.2 mph88%30.21 "HgN/A
4:20 AM54 °FPassing clouds.3 mph88%30.18 "HgN/A
3:20 AM52 °FPassing clouds.1 mph94%30.18 "HgN/A
1:20 AM54 °FPassing clouds.2 mph88%30.18 "HgN/A
12:20 AM52 °FPassing clouds.2 mph94%30.18 "HgN/A
11:20 PM
Mon, Aug 29
54 °FPassing clouds.5 mph88%30.15 "HgN/A
10:20 PM55 °FPassing clouds.6 mph88%30.15 "HgN/A
9:20 PM57 °FPassing clouds.7 mph82%30.12 "HgN/A
8:20 PM59 °FPassing clouds.8 mph77%30.09 "HgN/A
7:20 PM63 °FPassing clouds.13 mph64%30.09 "HgN/A
Weather by CustomWeather, © 2016

See weather overviewHow to use our weather pages